Location: Newark
(25.0000°N, 73.5000°E)
Time: 00:57:50
(UTC+00:00)

Tiros 1 despin weight - Pass Details

Date: 03 March 2021
Orbit: 593 x 641 km, 48.2° (Epoch: 15 April)

Event Time Altitude Azimuth Distance (km) Brightness Sun altitude
Rises 02:10:06 0° 312° (NW) 2,937 ? 8.8°
Reaches altitude 10° 02:12:27 10° 310° (NW) 2,027 ? 9.3°
Maximum altitude 02:17:06 71° 227° (SW) 674 ? 10.4°
Drops below altitude 10° 02:21:43 10° 143° (SE) 2,010 ? 11.4°
Sets 02:24:02 0° 141° (SE) 2,911 ? 11.9°
